Regional Weather Roundup
Issued by NWS

Home | Current Version | Previous Version | Graphics & Text | Print | Product List | Glossary On
Versions: 1 2 3 4 5 6 7 8 9 10 11 12 13 14 15 16 17 18 19 20 21 22 23 24 25 26 27 28 29 30 31 32 33 34 35 36 37 38 39 40 41 42 43 44 45 46 47 48 49 50
000
ASUS43 KBIS 282002
RWRND

NORTH DAKOTA REGIONAL WEATHER ROUNDUP
NATIONAL WEATHER SERVICE BISMARCK ND
300 PM CDT WED SEP 28 2016

NOTE: "FAIR" INDICATES FEW OR NO CLOUDS BELOW 12,000 FEET WITH NO
SIGNIFICANT WEATHER AND/OR OBSTRUCTIONS TO VISIBILITY.


NDZ001>003-009>011-017-282100-
NORTHWEST NORTH DAKOTA

CITY           SKY/WX    TMP DP  RH WIND       PRES   REMARKS
WILLISTON      SUNNY     72  51  47 CALM      30.25F
MINOT          SUNNY     69  38  32 E8        30.28S
MINOT AFB      SUNNY     68  39  34 SE8       30.28R
$$

NDZ018>021-031>035-040>046-282100-
SOUTHWEST NORTH DAKOTA

CITY           SKY/WX    TMP DP  RH WIND       PRES   REMARKS
BISMARCK       SUNNY     68  36  30 CALM      30.29S
DICKINSON      SUNNY     73  45  36 SE12      30.24F
GARRISON         N/A     69  34  27 SE9       30.28S
HETTINGER ARPT SUNNY     76  48  37 SE9       30.27S
$$

NDZ004>008-012>016-024-026-027-054-282100-
NORTHEAST NORTH DAKOTA

CITY           SKY/WX    TMP DP  RH WIND       PRES   REMARKS
GRAND FORKS    PTSUNNY   60  46  59 E5        30.32S
GRND FRKS AFB  MOSUNNY   59  46  63 NE6       30.32F
DEVILS LAKE    SUNNY     56  46  69 NW3       30.33S
$$

NDZ022-023-025-028>030-036>039-047>053-282100-
SOUTHEAST NORTH DAKOTA

CITY           SKY/WX    TMP DP  RH WIND       PRES   REMARKS
FARGO          PTSUNNY   63  46  54 NE8       30.30S
JAMESTOWN      SUNNY     60  46  59 CALM      30.30F
$$





USA.gov is the U.S. government's official web portal to all federal, state and local government web resources and services.